Austin Straubel International, WI

6:36 AM CDT on July 24, 2016 (GMT -0500)
Austin Straubel International | | Change Station

Elev 686 ft 44.48 °N, 88.14 °W | Updated 43 minutes ago

Overcast
Overcast
72 °F
Feels Like 72 °F
N
7
Wind Variable Wind from South

Today
High -- | Low -- °F
--% Chance of Precip.
Yesterday
High -- | Low -- °F
Precip. -- in
Pressure 29.81 in
Visibility 10.0 miles
Clouds Overcast 2000 ft
Dew Point 72 °F
Humidity 100%
Rainfall 0.52 in
Snow Depth Not available.
5:31 AM 8:26 PM
Waning Gibbous, 77% visible
METAR KGRB 241053Z 18006KT 10SM OVC020 22/22 A2982 RMK AO2 SLP092 T02220222
Pressure 29.81 in
Visibility 10.0 miles
Clouds Overcast 2000 ft
Dew Point 72 °F
Humidity 100%
Rainfall 0.52 in
Snow Depth Not available.
5:31 AM 8:26 PM
Waning Gibbous, 77% visible
METAR KGRB 241053Z 18006KT 10SM OVC020 22/22 A2982 RMK AO2 SLP092 T02220222

10-Day Weather Forecast

Almanac

Astronomy

Jul. 24, 2016 Rise Set
Actual Time
Civil Twilight
Nautical Twilight
Astronomical Twilight
Moon
Length of Visible Light
Length of Day
Tomorrow will be .
, % of the Moon is Illuminated

Today's Extremes

State Highs State Lows

Community

WunderPhotos

Upload Photos

1,927,048 photos uploaded!

WunderBlog® & News

Nearby

Air Quality

  Air Quality AQ Index Pollutant
Not available.

Snow Depth

Station Depth Elevation

Earthquake Activity

City Distance Mag. Time & Date
Minimum magnitude displayed is 2.5.

Coastal Water Temperatures

Place Temperature

Stations

Nearby Weather Stations

Station Location Temp. Windchill Dew Point Humidity Wind Precip. Elev Updated Type
                   

Watches & Warnings

There are currently no watches in effect.